Weather Roundup
Issued by NWS

Home | Current Version | Previous Version | Text Only | Print | Product List | Glossary On
Versions: 1 2 3 4 5 6 7 8 9 10 11 12 13 14 15 16 17 18 19 20 21 22 23 24 25 26 27 28 29 30 31 32 33 34 35 36 37 38 39 40 41 42 43 44 45 46 47 48 49 50
000
NZUS93 KARX 260910
HRRWXR

CURRENT HOURLY OBSERVATIONS ACROSS
MUCH OF THE UPPER MISSISSIPPI VALLEY
NATIONAL WEATHER SERVICE LA CROSSE WI
400 AM CDT SUN APR 26 2015


...SOUTHEAST MINNESOTA...


CITY           SKY/WX    TMP DP  RH WIND       PRES   REMARKS
ROCHESTER      CLEAR     36  21  54 SE9       29.99R WCI  29
ROCHESTER/MAYO FAIR      39  27  61 E5        29.99S
WINONA         CLEAR     34  30  86 CALM      30.02R
AUSTIN         CLEAR     36  30  80 CALM      29.99R
ALBERT LEA     CLEAR     34  34 100 CALM      29.98R FOG
DODGE CENTER   CLEAR     36  30  80 E3        29.99R
PRESTON        CLEAR     37  22  55 E5        29.99S WCI  33
OWATONNA       CLEAR     36  27  69 CALM      29.99R
FARIBAULT      CLEAR     37  28  70 N6        30.00R WCI  33
$$

...ELSEWHERE IN MINNESOTA...


CITY           SKY/WX    TMP DP  RH WIND       PRES   REMARKS
MINNEAPOLIS    CLEAR     39  21  48 N6        30.02R WCI  35
INTNL FALLS    CLEAR     30  24  78 E5        30.09R WCI  25
DULUTH         CLEAR     32  12  43 NE6       30.06F WCI  26
RED WING       CLEAR     39  21  48 CALM      30.01R
REDWOOD FALLS  CLEAR     39  27  62 NE6       30.01R WCI  35
MANKATO        CLEAR     39  27  60 N7        30.00R WCI  34
WORTHINGTON    CLEAR     34  28  80 NW3       29.99S
FAIRMONT       CLEAR     37  30  75 CALM      29.98S
$$

...SOUTHWEST WISCONSIN...


CITY           SKY/WX    TMP DP  RH WIND       PRES   REMARKS
LA CROSSE      FAIR      35  23  61 CALM      30.01R
PRAIRIE DU CHI CLEAR     31  29  91 CALM      29.99S
BOSCOBEL       CLEAR     28  24  85 CALM      29.99S
LONE ROCK      CLEAR     29  22  75 CALM      29.98S
PLATTEVILLE    CLEAR     32  23  70 N9        29.95S WCI  24
FORT MC COY    CLEAR     25  18  77 CALM      30.02R
CAMP DOUGLAS   CLEAR     24  24  99 CALM      30.00R
VIROQUA        FAIR      33  19  57 NE8       29.98S WCI  26
WIS DELLS      CLEAR     29  19  67 CALM      29.99R
$$

...ELSEWHERE IN WISCONSIN...


CITY           SKY/WX    TMP DP  RH WIND       PRES   REMARKS
MILWAUKEE      PTCLDY    37  30  75 N9        29.96R WCI  30
MADISON        CLEAR     32  22  66 N5        29.97R WCI  27
GREEN BAY      CLEAR     33  22  63 N8        30.01R WCI  26
EAU CLAIRE     CLEAR     32  24  72 NE6       30.02R WCI  26
BLACK RVR FLS  FAIR      23  20  88 CALM      30.01S
MEDFORD        CLEAR     28  22  78 NE6       30.02R WCI  22
WAUSAU         CLEAR     34  22  61 CALM      30.01R
WIS RAPIDS     CLEAR     35  20  54 NE7       30.02R WCI  29
MARSHFIELD     CLEAR     36  20  52 NE5       30.01R WCI  32
RICE LAKE      CLEAR     32  23  69 N5        30.05R WCI  27
$$

...NORTHEAST IOWA...


CITY           SKY/WX    TMP DP  RH WIND       PRES   REMARKS
DECORAH        CLEAR     37  19  48 E6        29.98R WCI  33
MASON CITY     CLEAR     35  32  88 NW3       30.00R
CHARLES CITY   CLEAR     36  32  87 NE8       29.98R WCI  29
OELWEIN        CLEAR     36  28  75 NE8       29.98R WCI  29
$$

...ELSEWHERE IN IOWA...


CITY           SKY/WX    TMP DP  RH WIND       PRES   REMARKS
DES MOINES     CLOUDY    48  37  65 E7        29.95R
IOWA CITY      CLEAR     41  35  79 NE6       29.95R
FORT DODGE     PTCLDY    37  34  87 N3        29.98R
$$

...NORTHERN ILLINOIS...


CITY           SKY/WX    TMP DP  RH WIND       PRES   REMARKS
CHICAGO-OHARE  CLEAR     36  29  75 N7        29.90R WCI  30
CHICAGO-MIDWAY PTCLDY    41  32  70 N6        29.90R
MOLINE         CLEAR     41  31  67 N3        29.93R
ROCKFORD       CLEAR     35  22  58 NE9       29.95R WCI  28
PEORIA         MOCLDY    43  29  57 NE8       29.89R
$$

NOTE: "FAIR" INDICATES FEW OR NO CLOUDS BELOW 12,000 FEET WITH NO
SIGNIFICANT WEATHER AND/OR OBSTRUCTIONS TO VISIBILITY. WIND
SPEEDS ARE IN MILES-PER-HOUR.



USA.gov is the U.S. government's official web portal to all federal, state and local government web resources and services.